Regional Weather Roundup
Issued by NWS San Diego, CA

Home | Current Version | Previous Version | Text Only | Print | Product List | Glossary On
Versions: 1 2 3 4 5 6 7 8 9 10 11 12 13 14 15 16 17 18 19 20 21 22 23 24 25 26 27 28 29 30 31 32 33 34 35 36 37 38 39 40 41 42 43 44 45 46 47 48 49 50
000
ASUS46 KSGX 251311
RWRSGX

SAN DIEGO HOURLY WEATHER ROUNDUP
NATIONAL WEATHER SERVICE SAN DIEGO CA
600 AM PDT MON MAY 25 2015

NOTE: "FAIR" INDICATES FEW OR NO CLOUDS BELOW 12,000 FEET WITH NO
SIGNIFICANT WEATHER AND/OR OBSTRUCTIONS TO VISIBILITY.

CAZ042-043-060-061-PZZ750-775-251400-

GREATER SAN DIEGO AREA

CITY           SKY/WX    TMP DP  RH WIND       PRES   REMARKS
LINDBERGH FLD  CLOUDY    64  53  67 CALM      29.97S
POINT LOMA       N/A     59  53  80 W6          N/A
NATIONAL CITY    N/A     63  56  78 CALM      29.96S
CHULA VISTA      N/A     62  56  81 CALM      29.88F
IMPERIAL BEACH CLOUDY    63  55  75 W6        29.96S
BROWN FIELD    CLOUDY    60  53  77 NE3       29.96S
MIRAMAR MCAS   MOCLDY    63  53  70 CALM      29.96R
MONTGOMERY FLD CLOUDY    60  54  80 E3        29.96S

$$

NORTH SAN DIEGO COUNTY

CITY           SKY/WX    TMP DP  RH WIND       PRES   REMARKS
CAMP PENDLETON CLOUDY    60  53  77 CALM      29.95S
OCEANSIDE AP   CLOUDY    61  54  77 CALM      29.94S
OCEANSIDE HBR    N/A     62  56  81 N1        29.98S
VISTA            N/A     59  54  83 CALM      29.94R
CARLSBAD       CLOUDY    60  54  80 S5        29.95S
DEL MAR          N/A     60  55  84 CALM      29.98R
LA JOLLA SCRIP   N/A    N/A N/A N/A CALM      29.93S
FALLBROOK        N/A     58  58 100 CALM      29.95S
ESCONDIDO        N/A     56  53  88 SW2       29.98R
SAN MARCOS       N/A     56  53  87 CALM      29.94S
POWAY            N/A     58  54  87 CALM      29.98S

$$

EAST SAN DIEGO COUNTY

CITY           SKY/WX    TMP DP  RH WIND       PRES   REMARKS
RAMONA         CLOUDY    54  52  93 CALM      29.96S
SANTEE LAKES     N/A     58  55  91 CALM      29.96S
LA MESA          N/A     59  54  83 CALM      29.90S
JAMUL            N/A     55  53  91 CALM      29.95F
DESCANSO N       N/A     42  41  94 CALM      29.87S
MT. LAGUNA OBS   N/A     50  38  62 CALM      29.63F

$$

ORANGE COUNTY AND THE LOS ANGELES BASIN

CITY           SKY/WX    TMP DP  RH WIND       PRES   REMARKS
JOHN WAYNE AP  MOCLDY    61  52  72 E5        29.95S
SANTA ANA        N/A     58  53  81 CALM      29.91R
HUNTINGTON BCH   N/A     56  55  95 CALM      29.97R
LOS ALAMITOS   CLOUDY    56  53  92 CALM      29.96R
FULLERTON      CLOUDY    58  53  84 CALM      29.95R
LONG BEACH     CLOUDY    60  54  80 CALM      29.96R
L.A. AP        MOCLDY    58  55  90 SW6       29.96R
L.A. DOWNTOWN  MOCLDY    57  53  86 CALM      29.96R

$$

THE INLAND EMPIRE

CITY           SKY/WX    TMP DP  RH WIND       PRES   REMARKS
CORONA         CLEAR     47  47 100 CALM      29.97R
CHINO          MOCLDY    54  52  93 CALM      29.97R FOG
ONTARIO        CLOUDY    56  52  86 CALM      29.95R FOG
RIVERSIDE AP   CLOUDY    54  51  90 NE3       29.96R FOG
RIV CYN CREST    N/A     54  54 100 S2          N/A
MORENO VALLEY    N/A     53  53  99 CALM      29.94R
MARCH ARB      CLOUDY    54  54 100 S3        29.95R
HORSETHIEF CYN   N/A     52  49  88 CALM      29.92S
PERRIS           N/A     53  53  98 S2          N/A
MENIFEE          N/A     55  54  95 CALM      30.02S
FRENCH VALLEY  CLOUDY    55  52  88 CALM      29.96S
TEMECULA         N/A     57  55  91 CALM      29.93S

$$

SAN BERNARDINO AND RIVERSIDE COUNTY MOUNTAINS

CITY           SKY/WX    TMP DP  RH WIND       PRES   REMARKS
BIG BEAR AP    CLEAR     32  30  93 CALM      30.09S
PINE COVE        N/A     50  33  51 N3        29.94R

$$

SOUTHERN DESERT INCLUDING THE COACHELLA VALLEY

CITY           SKY/WX    TMP DP  RH WIND       PRES   REMARKS
PALM SPRINGS   CLEAR     64  51  62 CALM      29.86R
THOUSAND PALMS   N/A     66  51  57 W5        29.82S
PALM DESERT      N/A     64  53  66 CALM      32.15S
THERMAL        CLEAR     66  52  60 NW6       29.82R
BLYTHE         CLEAR     67  50  54 SE5       29.84R
IMPERIAL AP    CLEAR     65  48  54 CALM      29.84R
EL CENTRO NAS  CLEAR     63  47  55 SE6       29.86R
YUMA AZ        CLEAR     68  49  50 SE7       29.86R

$$

UPPER DESERT

CITY           SKY/WX    TMP DP  RH WIND       PRES   REMARKS
VICTORVILLE AP CLEAR     54  46  76 S9        29.93S
HESPERIA         N/A     50  46  84 CALM      30.00R
APPLE VALLEY     N/A     49  44  83 CALM      30.02R
PALMDALE       CLEAR     55  47  74 SW10      29.93R
LANCASTER      CLEAR     55  46  71 SW3       29.92R
EDWARDS AFB    CLEAR     55  46  72 SW8       29.89R
DAGGETT        CLEAR     60  43  53 W7        29.90R
29 PALMS N     CLEAR     62  43  49 W8        29.97R
NEEDLES        CLEAR     71  53  52 N6        29.85R

$$

REGIONAL REPORTS

CITY           SKY/WX    TMP DP  RH WIND       PRES   REMARKS
SANTA BARBARA  CLEAR     53  49  86 CALM      29.94R
SANDBERG       CLEAR     55  46  71 NW15      29.99S
LAS VEGAS NV   PTCLDY    63  54  72 NE3       29.88R
PHOENIX AZ     PTCLDY    68  43  40 E8        29.88R
TIJUANA        CLOUDY    61  50  67 N5        29.98
ENSENADA NW      N/A     60  32  34 CALM      29.94S

$$

OFFSHORE ISLANDS

CITY           SKY/WX    TMP DP  RH WIND       PRES   REMARKS
CATALINA ARPT  CLOUDY    52  51  97 S6        29.96R FOG
SAN NICOLAS IS CLOUDY   N/A N/A N/A W12       29.96R

$$

MARINE AND OFFSHORE BUOY REPORTS

STATION/POSITION SKY/WX   TEMP    WIND        PRES    SWELL
                          AIR SEA DIR/SP/G            HT/PER/DIR
                          (F)     (DEG/KT/KT) (MB)    (FT/S/D)
TANNER BANKS               58 61  310/ 14/ 16 1015.0R   5/230/16
S CLEMENTE BASIN           60 62  260/  6/  8 1014.5R   3/200/16
SAN NICOLAS IS.               58                N/A     3/190/17
SO. S. ROSA ISLA           56 59  330/ 16/ 17 1014.0R   5/16
W. S. BARBARA CH           54 53  330/ 14/ 17 1014.1R   3/310/ 9
M. S. BARBARA CH           57 58  360/  6/  8 1014.1S
S. MONICA BASIN            58 60  170/  2/  4 1014.3R   3/220/16
S PEDRO CHANNEL               63                N/A     2/180/17
DANA POINT                    65                N/A     2/190/17
OCEANSIDE OFFSHR              64                N/A     2/190/15
TORREY PINES OTR              65                N/A     2/210/17
LA JOLLA 1                 62 63   80/  4/  5 1014.0F
MISSION BAY BUOY              65                N/A     2/200/15
SAN DIEGO BAY                 68              1014.6F
POINT LOMA SOUTH              64                N/A     2/210/15

$$



USA.gov is the U.S. government's official web portal to all federal, state and local government web resources and services.